Location: Bergnerzell
(49.1816°N, 10.2565°E)
Time: 09:48:32
(UTC+00:00)

Cosmos 841 Rocket - Pass Details

Date: 23 May 2024
Orbit: 744 x 770 km, 74.0° (Epoch: 15 June)

Event Time Altitude Azimuth Distance (km) Brightness Sun altitude
Rises 00:24:29 0° 337° (NNW) 3,232 7.6 -18.5°
Reaches altitude 10° 00:26:53 10° 340° (NNW) 2,306 6.7 -18.4°
Maximum altitude 00:32:06 69° 64° (ENE) 819 3.7 -18.1°
Enters shadow 00:36:24 15° 147° (SSE) 1,952 5.3 -17.9°
